Theta_e
338 339 340 342 343 341 340 339 338 338 339 339 339 336 335 335 334 328 327 329 326 325 325 326 324 323 323 327 323 321 319 318 313 321 322 324 324 326 328 327 328 326 324
340 340 341 342 344 342 340 341 341 338 339 338 336 335 334 332 332 329 328 329 325 324 324 324 323 324 320 326 322 320 319 319 318 319 321 321 325 327 327 327 327 327 325
342 341 340 339 339 337 338 337 339 336 334 334 332 331 332 330 330 330 328 327 326 325 325 322 321 321 318 322 322 321 320 322 321 321 321 324 324 324 321 323 323 323 323
340 338 335 336 337 336 336 336 335 334 332 329 328 329 332 332 332 331 329 326 325 324 324 323 325 324 320 321 324 321 321 322 322 321 320 319 319 320 320 318 317 320 318
336 337 336 336 336 336 335 333 331 327 327 328 329 329 327 327 329 329 328 326 324 322 322 324 325 326 323 325 325 323 321 321 320 318 317 318 317 317 316 317 315 316 317
336 335 336 334 333 331 328 330 328 327 327 328 327 326 324 323 306 315 323 324 323 324 320 323 323 319 318 317 319 320 323 321 318 317 317 316 317 315 316 316 316 315 311
334 334 334 332 330 330 326 327 327 327 327 329 328 325 320 315 305 308 318 323 322 322 320 322 324 326 321 319 312 314 315 313 318 319 317 318 316 317 317 316 317 316 314
330 329 327 329 326 325 327 326 327 327 327 329 328 324 317 314 305 309 313 324 323 323 323 323 322 322 322 323 324 322 320 319 318 320 318 319 319 320 320 319 316 316 317
325 326 326 326 325 327 326 326 327 326 323 324 325 321 316 315 304 308 318 322 322 321 321 319 322 322 303 310 322 320 319 317 310 310 309 306 305 307 314 318 315 314 313
325 327 327 329 327 327 327 328 327 324 325 327 326 322 313 315 302 311 320 321 320 320 320 319 304 315 303 306 323 321 317 317 316 314 313 308 310 309 308 318 318 314 313
327 327 326 326 327 327 328 327 324 324 325 325 322 320 319 316 312 307 311 322 321 320 318 316 311 299 302 304 312 322 317 317 312 317 318 318 317 318 319 318 316 316 313
326 326 326 327 328 328 327 325 325 324 324 323 322 323 322 319 307 306 306 311 313 320 318 314 308 297 299 301 308 300 303 311 319 318 317 316 316 317 318 317 315 315 318
325 325 325 325 326 326 322 325 322 324 324 321 321 320 319 318 308 298 299 304 308 318 318 307 297 297 298 300 298 300 307 318 317 315 315 315 317 317 318 318 318 319 319
324 326 325 327 326 324 325 324 322 323 323 323 320 318 319 317 312 313 311 309 303 306 304 308 306 305 305 306 311 315 318 318 316 316 315 316 317 317 316 318 315 312 313
325 325 324 325 319 315 312 314 321 317 319 325 321 320 319 318 315 314 313 316 314 310 314 317 316 316 315 316 317 318 318 317 316 316 316 316 316 316 316 317 317 314 312
323 324 326 326 322 318 316 312 296 296 296 301 309 317 316 306 299 303 298 299 299 302 315 315 314 315 315 317 317 316 317 315 316 317 317 316 316 316 317 318 320 316 313
322 321 323 324 323 320 318 317 313 306 297 295 297 301 302 299 297 298 297 297 296 307 316 316 315 316 316 318 315 317 316 317 316 315 315 318 317 317 313 318 318 318 314
323 313 324 324 325 323 320 319 320 319 316 311 298 298 296 296 296 295 295 302 313 312 316 315 314 315 317 318 316 315 316 317 317 317 317 319 319 319 318 318 317 315 313
323 323 325 326 324 322 323 320 321 319 313 310 309 302 296 293 294 294 295 318 318 318 317 317 317 317 318 318 318 318 318 318 318 318 319 320 320 318 317 317 315 307 307
322 312 318 322 322 322 323 323 320 317 315 317 316 311 308 310 309 308 311 319 320 319 320 319 318 319 318 318 320 321 320 316 318 319 321 321 319 319 317 317 315 315 313
325 324 314 323 321 324 325 323 322 321 319 317 315 313 300 317 313 313 314 319 320 320 322 319 318 319 321 322 323 323 322 321 322 323 323 322 320 319 319 319 321 321 318
322 323 321 324 324 322 322 324 323 322 322 318 317 310 289 317 317 317 317 320 322 319 321 321 319 316 318 316 319 322 322 322 323 323 323 322 323 322 321 319 319 317 316
322 321 324 324 322 315 321 323 323 322 322 320 318 315 311 320 319 320 316 312 310 307 307 305 305 303 302 304 303 302 305 306 309 313 318 323 323 322 323 323 323 321 320
324 324 324 324 322 322 321 320 318 313 321 321 321 323 318 315 313 310 307 304 303 303 300 298 297 296 296 296 296 296 295 296 301 311 317 324 322 317 322 322 322 322 322
312 319 320 317 317 316 315 315 314 317 321 320 317 313 311 313 310 307 303 301 299 297 296 296 294 292 292 292 292 292 288 287 293 294 309 311 308 312 315 312 315 313 312
306 305 308 311 308 306 306 305 303 303 304 303 303 302 301 300 302 302 300 297 295 293 292 291 291 290 290 290 289 287 286 287 292 290 301 301 301 301 303 304 304 302 302
Wind_Speed
10 8 9 8 12 12 10 9 9 7 7 9 8 7 7 8 8 6 5 6 6 6 4 6 6 4 2 2 2 2 3 3 3 2 3 2 3 6 4 6 6 6 5
10 8 8 8 12 12 10 11 9 8 8 9 9 8 8 7 7 7 6 6 7 6 6 6 6 3 2 3 4 4 3 3 4 8 2 3 5 6 7 10 6 6 6
10 10 9 10 12 12 11 9 12 11 9 9 8 7 7 7 7 7 7 6 6 6 7 6 6 4 3 1 3 4 3 3 4 7 4 3 4 5 9 8 7 7 5
12 12 12 12 13 10 11 10 9 7 7 8 7 7 7 7 5 5 5 4 3 5 6 5 5 5 5 5 5 6 4 6 8 8 6 4 4 4 5 6 6 4 5
15 15 13 12 12 11 10 9 8 8 7 7 8 7 8 7 4 6 6 5 5 6 5 4 3 1 3 8 5 5 7 7 7 7 5 4 4 3 6 3 5 6 4
16 13 12 12 11 9 9 10 7 7 7 9 9 9 8 6 5 9 7 5 5 5 5 4 4 4 2 5 7 9 13 12 9 7 5 7 5 6 6 7 8 7 4
15 14 12 11 11 11 8 7 9 8 8 10 10 10 7 6 6 7 8 5 5 5 5 4 4 3 4 5 9 12 10 9 10 10 12 8 8 8 9 9 8 6 3
14 13 11 12 8 8 8 9 7 7 7 9 9 8 8 5 6 6 9 6 5 5 4 4 5 5 4 5 9 10 8 7 8 6 10 8 8 9 10 7 7 8 7
13 12 12 11 10 9 9 9 8 9 7 6 7 7 8 5 3 4 8 6 5 4 5 5 3 7 7 8 11 11 9 6 8 12 13 14 12 11 10 10 9 10 5
16 14 13 13 11 10 9 8 5 6 6 7 7 7 8 6 3 6 8 5 5 4 4 4 8 7 8 11 11 11 10 8 10 8 8 9 9 8 10 8 11 10 7
14 13 10 11 12 11 8 8 6 6 8 9 8 5 6 5 4 7 9 5 4 5 3 3 3 6 6 10 11 10 10 9 10 9 8 7 7 8 4 5 5 9 8
14 13 12 11 9 9 10 5 7 9 10 9 8 6 4 5 6 6 5 7 8 6 5 3 3 8 11 12 9 15 18 11 7 7 7 7 7 5 4 4 5 5 2
15 15 11 10 10 8 8 7 6 9 8 7 6 6 5 4 3 8 7 9 8 5 4 7 9 12 13 12 14 12 12 8 7 7 6 5 5 4 5 4 4 4 1
13 12 10 11 8 5 5 5 5 6 7 7 7 5 6 5 4 4 5 7 10 8 10 5 8 9 10 8 6 6 5 6 7 6 5 5 5 4 4 3 3 2 2
13 12 10 9 9 8 7 4 3 3 3 9 7 7 8 6 5 6 7 6 6 7 8 6 6 6 6 3 4 4 5 5 5 5 6 5 5 4 3 2 2 3 3
10 9 9 9 7 7 7 6 13 8 1 7 13 10 3 9 11 14 14 15 12 11 6 6 6 6 5 4 5 3 4 5 4 6 6 5 5 5 5 4 3 3 4
10 7 7 8 8 8 7 7 9 7 19 17 8 16 12 11 15 16 16 13 9 9 6 6 6 3 4 5 4 4 4 4 5 4 4 5 6 5 5 5 5 4 4
9 12 8 5 9 8 7 7 7 8 8 5 12 7 13 15 15 15 13 9 4 4 6 5 4 4 3 4 4 4 4 4 4 5 5 5 7 7 5 4 4 4 4
8 7 7 7 7 9 9 8 8 9 8 7 6 8 8 12 11 9 2 3 4 6 5 5 4 4 3 3 4 4 5 4 4 4 5 4 4 4 4 4 5 7 6
7 14 10 5 6 6 7 9 9 9 9 8 7 5 4 5 4 4 3 1 3 3 5 5 4 4 3 3 4 5 5 5 5 4 5 5 4 4 4 6 5 7 8
10 11 12 7 5 6 9 9 10 9 9 8 7 7 9 8 5 4 4 3 4 5 5 5 5 5 5 4 4 5 5 5 4 5 5 5 5 4 5 6 7 8 7
5 10 6 8 8 5 6 7 10 10 10 10 8 6 5 4 4 4 1 3 5 6 3 4 5 7 6 5 4 1 2 1 0 2 4 4 5 6 6 5 6 6 6
5 6 7 6 5 6 5 5 7 7 10 8 8 6 3 3 4 4 8 8 9 9 8 9 8 8 7 7 7 6 5 4 4 4 4 5 5 6 7 8 8 7 7
12 10 13 11 7 6 6 8 6 11 12 11 8 7 9 10 10 12 10 10 11 11 10 11 11 13 9 8 7 7 6 5 4 5 8 4 5 7 6 6 6 7 6
11 10 13 12 11 8 13 12 11 12 14 12 11 11 10 11 12 13 11 11 11 11 13 11 10 13 15 14 14 14 12 10 5 5 8 9 10 10 8 7 6 7 8
13 14 12 13 11 7 9 14 11 11 13 12 11 11 11 11 11 12 11 12 11 11 12 10 13 17 15 12 13 12 9 7 10 10 9 8 10 8 7 9 12 8 8
Wind_Direction
144 150 150 157 155 145 150 150 156 148 144 142 141 144 147 145 151 149 171 171 163 168 169 166 173 163 175 189 182 167 154 132 128 25 84 111 114 128 97 89 114 111 115
145 139 146 136 142 140 143 145 143 140 133 136 141 153 154 153 143 158 167 160 172 182 182 162 174 173 220 227 182 175 169 169 129 128 79 72 72 103 114 120 110 105 111
131 122 113 113 121 129 123 125 136 133 136 145 151 157 138 151 156 167 177 188 195 189 168 168 183 171 242 227 190 170 166 133 119 128 115 71 70 84 81 77 85 82 80
116 117 114 116 119 112 119 123 115 123 126 125 124 126 146 151 154 155 148 149 164 146 149 160 187 192 221 232 193 176 153 111 113 122 114 91 88 74 83 111 95 88 88
124 120 121 115 125 127 126 119 120 117 123 122 122 98 94 87 82 117 111 126 126 121 133 154 170 148 215 214 166 169 122 125 127 123 115 111 115 125 124 112 112 107 68
124 128 126 127 126 119 120 115 121 113 122 118 106 110 94 95 89 114 122 123 132 139 149 164 143 136 129 146 145 144 147 143 142 138 135 142 139 120 133 136 135 136 122
123 128 126 123 126 137 127 113 113 124 111 111 109 105 103 102 90 87 117 111 122 134 147 162 171 149 166 105 93 112 118 117 137 144 148 157 147 154 145 147 152 141 115
129 127 119 120 122 113 107 119 112 119 117 111 106 112 110 95 89 83 124 111 100 96 95 107 137 142 119 110 103 104 114 118 128 133 129 138 135 149 150 141 130 102 93
124 119 123 121 117 112 122 124 123 109 106 108 121 118 113 113 91 112 117 102 101 87 73 50 114 99 80 111 108 108 104 78 69 112 119 122 131 137 132 127 133 140 143
132 134 131 132 125 124 131 126 120 119 122 111 107 103 111 119 75 110 117 118 113 101 75 59 38 110 98 135 122 123 115 125 119 116 106 105 124 137 138 152 152 156 150
132 127 127 127 131 140 132 130 131 122 104 105 109 105 111 120 89 91 112 119 128 117 103 85 84 100 112 122 123 125 129 128 120 125 128 126 134 147 143 142 163 162 161
134 137 134 128 131 139 136 126 123 116 117 119 124 111 100 90 91 79 122 126 134 129 123 105 100 107 110 101 94 123 122 123 125 124 129 134 143 149 131 132 143 139 152
126 132 131 128 136 138 126 124 111 123 134 139 134 133 123 102 81 73 79 139 115 110 109 113 108 96 96 90 117 114 119 125 129 132 137 136 145 127 112 98 77 115 86
114 112 128 127 111 88 109 125 131 148 145 146 142 144 127 123 119 125 105 95 86 89 106 105 100 89 86 115 113 102 115 131 141 137 138 122 117 126 129 121 127 134 120
113 114 115 107 103 92 69 30 93 97 151 156 152 150 145 152 175 144 132 125 126 125 121 113 110 115 124 117 101 111 124 126 132 133 137 133 136 140 135 151 125 137 184
122 135 134 129 118 117 120 97 49 38 8 187 134 137 111 125 129 126 116 117 121 127 110 119 124 132 141 135 136 128 134 142 144 145 143 152 153 163 168 175 176 177 196
150 137 132 123 131 135 130 119 107 66 69 53 91 126 127 139 125 126 132 128 120 118 120 132 136 133 139 138 136 151 149 149 150 149 148 157 163 177 166 184 197 199 214
155 149 143 138 143 146 138 128 119 116 107 75 34 74 118 122 124 127 129 112 107 110 138 147 150 148 159 142 152 155 158 157 150 161 168 183 174 179 189 201 194 203 218
153 154 148 154 144 144 142 138 126 111 104 110 109 67 62 75 105 122 142 139 148 153 155 160 156 166 186 184 157 174 166 171 172 167 173 184 176 172 198 208 209 217 217
130 139 143 131 130 121 125 125 121 122 128 131 125 120 126 119 141 166 220 261 148 139 153 164 169 166 189 215 186 164 167 174 186 193 195 191 194 194 214 211 212 226 223
145 142 138 132 133 135 137 137 133 136 136 136 137 148 150 143 146 173 214 230 173 173 169 164 176 180 207 218 176 174 181 186 196 196 197 193 195 206 219 224 237 246 232
146 138 137 152 146 135 141 144 145 143 143 139 144 158 132 134 161 193 1 11 30 40 55 85 66 43 37 41 13 109 201 166 92 242 226 207 206 227 228 231 244 239 222
104 161 142 137 111 117 110 103 104 108 122 120 130 121 152 103 97 75 80 68 61 58 53 58 57 56 43 46 40 37 38 15 354 324 281 228 242 245 228 234 243 243 246
69 78 84 69 68 71 86 76 87 108 118 110 112 103 95 92 86 82 78 73 64 62 67 66 58 56 44 41 32 38 28 358 319 309 297 55 55 44 30 60 40 42 34
63 79 84 80 51 50 90 77 71 80 92 100 100 87 74 83 86 84 78 76 73 66 62 64 60 54 51 44 40 29 356 335 323 8 45 61 60 44 49 33 35 52 46
70 63 59 75 72 41 72 88 73 73 86 85 81 78 77 76 76 79 78 76 78 75 73 62 62 59 55 45 37 28 13 360 38 36 58 55 61 49 52 50 48 46 41